Weather Service Report


794 
ASUS46 KSTO 282004
RWRCA 

NORTHERN AND CENTRAL CA REGIONAL WEATHER ROUNDUP
NATIONAL WEATHER SERVICE SACRAMENTO CA 
100 PM PDT SAT MAY 28 2016

NOTE: FAIR INDICATES FEW OR NO CLOUDS BELOW 12,000 FEET WITH NO
SIGNIFICANT WEATHER AND/OR OBSTRUCTIONS TO VISIBILITY.

CAZ001-003-282100-
NORTHWEST AREA
  
CITY           SKY/WX    TMP DP  RH WIND       PRES   REMARKS
CRESCENT CITY  SUNNY     58  48  69 N22G32    30.00S                  
UKIAH          SUNNY     81  44  27 E5        29.84F                  
$$

CAZ006-505>513-282100-
BAY AREA
  
CITY           SKY/WX    TMP DP  RH WIND       PRES   REMARKS
SANTA ROSA     MOSUNNY   82  44  26 CALM      29.82F                  
SAN RAFAEL     N/A       78  MM  MM MISG
NAPA           SUNNY     81  45  28 SW9       29.83F                  
CONCORD        SUNNY     86  39  19 VRB5      29.83F                  
OAKLAND CITY   N/A       63  MM  MM MISG
OAKLAND        PTSUNNY   79  43  27 W10       29.84F                  
SAN FRAN CITY  N/A       70  MM  46 MISG
SAN FRAN ARPT  PTSUNNY   79  54  41 W14       29.84F                  
LIVERMORE      SUNNY     85  40  20 E7        29.82F                  
HAYWARD        SUNNY     81  44  27 W13       29.83F                  
REDWOOD CITY   N/A       MM  MM  MM MISG
MOFFETT ARPT   SUNNY     84  47  27 VRB5      29.83F                  
SAN JOSE ARPT  PTSUNNY   83  48  29 VRB6      29.83F                  
$$
CAZ034-037-514>518-282100-
CENTRAL COAST
  
CITY           SKY/WX    TMP DP  RH WIND       PRES   REMARKS
WATSONVILLE    SUNNY     68  54  60 S12       29.88R                  
SALINAS        SUNNY     71  52  50 NW16G23   29.85S                  
MONTEREY       SUNNY     72  52  49 SW12      29.87S                  
SAN LUIS OBISP SUNNY     70  54  56 SW6       29.88F                  
SANTA MARIA    MOSUNNY   67  54  63 NW13      29.89S                  
$$
CAZ015-016-282100-
NORTHERN SACRAMENTO VALLEY
  
CITY           SKY/WX    TMP DP  RH WIND       PRES   REMARKS
REDDING        SUNNY     86  37  17 N15G28    29.83F                  
RED BLUFF      SUNNY     87  35  15 N13G22    29.84F                  
OROVILLE       MOSUNNY   83  45  26 VRB7      29.83S                  
$$
CAZ016>018-282100-
SOUTHERN SACRAMENTO VALLEY
  
CITY           SKY/WX    TMP DP  RH WIND       PRES   REMARKS
AUBURN         SUNNY     79  45  29 W7        29.89S                  
BEALE AFB      DRIZZLE   82  45  26 VRB6      29.81S                  
LINCOLN        FAIR      81  39  22 NW3       29.82F                  
MARYSVILLE     MOSUNNY   85  41  21 NW8       29.82F                  
SAC INTL ARPT  PTSUNNY   83  44  25 N6        29.82F                  
MATHER AIRPORT NOT AVBL                                               
DOWNTOWN SAC   N/A       83  MM  MM MISG
SAC EXEC ARPT  SUNNY     85  42  22 NW9       29.82F                  
VACAVILLE      SUNNY     87  40  19 VRB5      29.83F                  
TRAVIS AFB     MOSUNNY   85  41  21 N8        29.81F                  
$$
CAZ019>021-282100-
SAN JOAQUIN VALLEY
  
CITY           SKY/WX    TMP DP  RH WIND       PRES   REMARKS
STOCKTON       SUNNY     85  41  21 NW8       29.82F                  
MODESTO        SUNNY     86  44  23 NW13      29.81F                  
MERCED         SUNNY     84  48  28 W9        29.80F                  
LEMOORE        SUNNY     87  39  18 NW8G17    29.80F                  
FRESNO         PTSUNNY   86  47  25 W7        29.81F                  
HANFORD        MOSUNNY   86  46  24 NW8       29.80F                  
PORTERVILLE    PTSUNNY   87  51  28 NW9G16    29.81F                  
BAKERSFIELD    MOSUNNY   85  48  27 W12       29.81S                  
$$
CAZ011-012-071-282100-
NORTHERN MOUNTAINS
  
CITY           SKY/WX    TMP DP  RH WIND       PRES   REMARKS
YREKA          SUNNY     71  34  25 CALM      30.03F                  
MOUNT SHASTA   SUNNY     70  37  29 VRB7      30.02F                  
ALTURAS        SUNNY     68  32  26 VRB3      30.04F                  
$$
CAZ011-012-071-282100-
SIERRA NEVADA MTNS
  
CITY           SKY/WX    TMP DP  RH WIND       PRES   REMARKS
BLUE CANYON    SUNNY     64  31  28 S9        30.03S                  
TRUCKEE        MOSUNNY   66  36  32 S14       30.04F                  
TAHOE VLY ARPT MOSUNNY   64  36  35 VRB6      30.04S                  
MAMMOTH LAKES  LGT RAIN  51  39  64 CALM      30.11R                  
$$
  

Return to Home page


Western Regional Climate Center, wrcc@dri.edu